Location: Newark
(15.4608°S, 41.1635°W)
Time: 19:53:41
(UTC+00:00)

A-11 Canister half - All Passes

Search period start: 04 March 2021 00:00
Search period end: 14 March 2021 00:00
Orbit: 1516 x 1684 km, 47.2° (Epoch: 03 March)

Date Brightness Start Highest point End Pass type
(mag) Time Alt. Az. Time Alt. Az. Time Alt. Az.
04 Mar - 01:26:51 10° SW 01:30:39 13° SSW 01:34:28 10° S visible
04 Mar - 05:44:42 10° S 05:50:20 16° SSE 05:56:02 10° ESE visible
04 Mar - 07:47:01 10° SW 07:56:43 64° SE 08:06:39 10° NE visible
04 Mar - 09:53:09 10° WSW 10:01:24 30° NW 10:09:48 10° N daylight
04 Mar - 20:48:28 10° N 20:56:29 32° NE 21:04:23 10° ESE daylight
04 Mar - 22:51:58 10° WNW 23:01:01 56° SW 23:10:05 10° SSE visible
05 Mar - 01:03:12 10° WSW 01:07:32 14° SSW 01:11:55 10° S visible
05 Mar - 05:22:05 10° S 05:27:14 15° SSE 05:32:27 10° ESE visible
05 Mar - 07:24:10 10° SSW 07:33:46 59° SE 07:43:36 10° ENE visible
05 Mar - 09:30:00 10° WSW 09:38:28 33° NW 09:47:08 10° N daylight
05 Mar - 20:25:51 10° N 20:33:36 29° NE 20:41:14 10° ESE daylight
05 Mar - 22:28:56 10° NW 22:38:06 61° SW 22:47:15 10° SSE visible
06 Mar - 00:39:38 10° WSW 00:44:27 15° SSW 00:49:19 10° S visible
06 Mar - 04:59:30 10° S 05:04:08 14° SSE 05:08:48 10° ESE visible
06 Mar - 07:01:20 10° SSW 07:10:48 55° SE 07:20:32 10° ENE visible
06 Mar - 09:06:51 10° WSW 09:15:33 36° NW 09:24:28 10° N daylight
06 Mar - 20:03:15 10° N 20:10:43 27° NE 20:18:04 10° ESE daylight
06 Mar - 22:05:57 10° NW 22:15:11 66° SW 22:24:23 10° SE visible
07 Mar - 00:16:07 10° WSW 00:21:22 16° SSW 00:26:41 10° S visible
07 Mar - 04:36:59 10° S 04:41:00 13° SSE 04:45:04 10° SE visible
07 Mar - 06:38:30 10° SSW 06:47:51 51° SE 06:57:26 10° ENE visible
07 Mar - 08:43:45 10° WSW 08:52:38 39° NW 09:01:45 10° NNE daylight
07 Mar - 19:40:42 10° N 19:47:50 24° NE 19:54:51 10° ESE daylight
07 Mar - 21:42:58 10° NW 21:52:16 71° SW 22:01:32 10° SE visible
07 Mar - 23:52:39 10° WSW 23:58:18 17° SSW 00:04:01 10° S visible
08 Mar - 04:14:33 10° S 04:17:53 12° SSE 04:21:14 10° SE visible
08 Mar - 06:15:40 10° SSW 06:24:53 47° SE 06:34:19 10° ENE visible
08 Mar - 08:20:41 10° WSW 08:29:43 43° NW 08:39:00 10° NNE visible
08 Mar - 19:18:11 10° N 19:24:57 22° NE 19:31:35 10° E daylight
08 Mar - 21:20:00 10° NW 21:29:22 76° SW 21:38:40 10° SE visible
08 Mar - 23:29:13 10° WSW 23:35:15 19° SSW 23:41:20 10° S visible
09 Mar - 03:52:16 10° S 03:54:44 11° SSE 03:57:14 10° SE visible
09 Mar - 05:52:51 10° SSW 06:01:54 44° SE 06:11:11 10° ENE visible
09 Mar - 07:57:38 10° WSW 08:06:48 47° NW 08:16:15 10° NNE visible
09 Mar - 18:55:44 10° N 19:02:03 20° NE 19:08:15 10° E daylight
09 Mar - 20:57:03 10° NW 21:06:28 82° SW 21:15:47 10° SE daylight
09 Mar - 23:05:50 10° WSW 23:12:13 20° SSW 23:18:38 10° S visible
10 Mar - 03:30:30 10° SSE 03:31:35 10° SSE 03:32:40 10° SSE visible
10 Mar - 05:30:03 10° SSW 05:38:56 40° SE 05:48:01 10° ENE visible
10 Mar - 07:34:36 10° WSW 07:43:53 51° NW 07:53:27 10° NNE visible
10 Mar - 18:33:22 10° NNE 18:39:09 18° NE 18:44:52 10° E daylight
10 Mar - 20:34:06 10° NW 20:43:34 88° SW 20:52:53 10° SE daylight
10 Mar - 22:42:28 10° W 22:49:11 22° SW 22:55:56 10° SSE visible
11 Mar - 05:07:16 10° SSW 05:15:57 37° SE 05:24:50 10° ENE visible
11 Mar - 07:11:35 10° SW 07:20:58 55° NW 07:30:39 10° NNE visible
11 Mar - 18:11:04 10° NNE 18:16:15 16° NE 18:21:21 10° E daylight
11 Mar - 20:11:11 10° NW 20:20:41 86° NE 20:29:59 10° SE daylight
11 Mar - 22:19:08 10° W 22:26:10 23° SW 22:33:12 10° SSE visible
12 Mar - 04:44:29 10° SSW 04:52:58 35° SE 05:01:38 10° ENE visible
12 Mar - 06:48:37 10° SW 06:58:03 60° NW 07:07:49 10° NNE visible
12 Mar - 17:48:54 10° NNE 17:53:21 14° NE 17:57:43 10° E daylight
12 Mar - 19:48:18 10° NW 19:57:47 80° NE 20:07:05 10° SE daylight
12 Mar - 21:55:50 10° W 22:03:10 25° SW 22:10:28 10° SSE visible
13 Mar - 04:21:42 10° SSW 04:29:58 32° SE 04:38:24 10° E visible
13 Mar - 06:25:39 10° SW 06:35:08 65° NW 06:44:57 10° NNE visible
13 Mar - 08:38:46 10° WNW 08:39:45 10° NW 08:40:44 10° NW daylight
13 Mar - 17:26:59 10° NNE 17:30:26 12° NE 17:33:51 10° ENE daylight
13 Mar - 19:25:25 10° NW 19:34:53 74° NE 19:44:09 10° SE daylight
13 Mar - 21:32:34 10° W 21:40:09 27° SW 21:47:43 10° SSE visible
